Regional Weather Roundup
Issued by NWS

Home | Current Version | Previous Version | Graphics & Text | Print | Product List | Glossary On
Versions: 1 2 3 4 5 6 7 8 9 10 11 12 13 14 15 16 17 18 19 20 21 22 23 24 25 26 27 28 29 30 31 32 33 34 35 36 37 38 39 40 41 42 43 44 45 46 47 48 49 50
000
ASUS43 KLSX 210807
RWRMO

WEATHER SUMMARY FOR MISSOURI
NATIONAL WEATHER SERVICE SPRINGFIELD MO
200 AM CST SUN DEC 21 2014

NOTE: "FAIR" INDICATES FEW OR NO CLOUDS BELOW 12,000 FEET WITH NO
       SIGNIFICANT WEATHER AND/OR OBSTRUCTIONS TO VISIBILITY.
       CURRENT SKY AND/OR WEATHER CONDITIONS ARE NOT AVAILABLE FOR
       CHILLICOTHE AND FARMINGTON.

MOZ001>031-035>038-043-044-053-054-210900-
...NORTHERN AND WESTERN MISSOURI...

CITY           SKY/WX    TMP DP  RH WIND       PRES   REMARKS
KANSAS CTY INT PTCLDY    35  33  92 S12       30.08F WCI  27
KANSAS C DTWN  CLEAR     36  32  85 S8        30.10S WCI  30
LEE`S SUMMIT   CLEAR     35  32  88 S8        30.10F WCI  29
ST JOSEPH      PTCLDY    33  31  92 S7        30.09S WCI  27
CHILLICOTHE      N/A     38  34  85 S6        30.13F
KIRKSVILLE     CLOUDY    38  35  89 S7        30.14F

$$
MOZ066>068-077>081-088>096-101>105-210900-
...SOUTHWEST MISSOURI...

CITY           SKY/WX    TMP DP  RH WIND       PRES   REMARKS
SPRINGFIELD    CLOUDY    41  36  82 S5        30.15F
JOPLIN         CLOUDY    43  38  82 S8        30.14F

$$
MOZ032>034-039>042-045>050-055>058-069>072-210900-
...CENTRAL MISSOURI...

CITY           SKY/WX    TMP DP  RH WIND       PRES   REMARKS
COLUMBIA       CLOUDY    40  35  83 S7        30.16F
JEFFERSON CITY CLOUDY    42  35  76 SE3       30.18F
ROLLA          CLOUDY    39  34  82 S6        30.17S
SEDALIA        CLOUDY    42  35  76 S9        30.13F
WHITEMAN AFB   CLOUDY    41  36  83 SW9       30.12F
WARRENSBURG    CLOUDY    39  34  81 S5        30.12S
OSAGE BEACH    CLOUDY    41  34  75 S6        30.16F

$$
MOZ051-052-059>065-210900-
...EAST CENTRAL MISSOURI...

CITY           SKY/WX    TMP DP  RH WIND       PRES   REMARKS
ST LOUIS INTL  CLOUDY    42  32  67 SE7       30.23S
SPIRIT OF STL  CLOUDY    41  33  73 CALM      30.22S
ST CHARLES     CLOUDY    40  35  83 SE7       30.23R

$$
MOZ072>076-082>087-097>100-106>115-210900-
...SOUTH CENTRAL AND SOUTHEAST MISSOURI...

CITY           SKY/WX    TMP DP  RH WIND       PRES   REMARKS
CAPE GIRARDEAU PTCLDY    30  29  96 CALM      30.27S
FARMINGTON     CLOUDY    37  34  87 E5        30.24S
POPLAR BLUFF   CLOUDY    40  32  73 SE5       30.25S
WEST PLAINS    CLOUDY    39  34  82 SE7       30.20S

$$



USA.gov is the U.S. government's official web portal to all federal, state and local government web resources and services.